Regional Weather Roundup
Issued by NWS

Home | Current Version | Previous Version | Text Only | Print | Product List | Glossary On
Versions: 1 2 3 4 5 6 7 8 9 10 11 12 13 14 15 16 17 18 19 20 21 22 23 24 25 26 27 28 29 30 31 32 33 34 35 36 37 38 39 40 41 42 43 44 45 46 47 48 49 50
000
ASUS44 KFWD 040003
RWRTX
NORTH TEXAS HOURLY WEATHER ROUNDUP
NATIONAL WEATHER SERVICE FORT WORTH TX
700 PM CDT TUE MAY 03 2016

NOTE: "FAIR" INDICATES FEW OR NO CLOUDS BELOW 12,000 FEET WITH NO
SIGNIFICANT WEATHER AND/OR OBSTRUCTIONS TO VISIBILITY.

TXZ118-119-040100-
DALLAS/FORT WORTH METROPLEX

CITY           SKY/WX    TMP DP  RH WIND       PRES   REMARKS
DFW AIRPORT    MOSUNNY   72  42  34 N8        30.03R
6HR MIN TEMP:  70; 6HR MAX TEMP:  74;

DALLAS LOVE    MOSUNNY   73  43  33 N6        30.03R
6HR MIN TEMP:  70; 6HR MAX TEMP:  75;

FTW MEACHAM    SUNNY     74  45  35 N7        30.03R
DAL-EXECUTIVE  SUNNY     70  46  42 NW7       30.02R
6HR MIN TEMP:  69; 6HR MAX TEMP:  73;

FTW-ALLIANCE   MOSUNNY   72  44  36 N8        30.03R
6HR MIN TEMP:  69; 6HR MAX TEMP:  74;

FTW-NAS-JRB    SUNNY     73  45  36 NW7       30.04R
6HR MIN TEMP:  69; 6HR MAX TEMP:  74;

FTW-SPINKS     SUNNY     70  50  49 N7        30.05R
ARLINGTON      SUNNY     74  44  34 N9        30.03R
6HR MIN TEMP:  71; 6HR MAX TEMP:  76;

GRAND PRAIRIE  SUNNY     72  41  33 N6        30.05R
ADDISON        SUNNY     72  46  40 N7        30.04R
MESQUITE       SUNNY     70  45  40 N7        30.03R
LANCASTER      SUNNY     71  41  34 E5        30.03R
6HR MIN TEMP:  67; 6HR MAX TEMP:  73;

$$

TXZ091>094-102>105-117-120-121-131>134-040100-
NORTH CENTRAL TEXAS

CITY           SKY/WX    TMP DP  RH WIND       PRES   REMARKS
SHRMAN/DENISON SUNNY     67  40  37 CALM      30.04S
6HR MIN TEMP:  64; 6HR MAX TEMP:  69;

BRIDGEPORT     PTSUNNY   70  50  48 CALM      30.06R
6HR MIN TEMP:  68; 6HR MAX TEMP:  74;

DECATUR        SUNNY     70  42  36 CALM      30.05R
6HR MIN TEMP:  67; 6HR MAX TEMP:  73;

DENTON         SUNNY     71  48  43 N7        30.03R
6HR MIN TEMP:  67; 6HR MAX TEMP:  73;

MCKINNEY       SUNNY     70  46  42 N7        30.03R
6HR MIN TEMP:  68; 6HR MAX TEMP:  73;

ROCKWALL       SUNNY     69  47  43 N6        30.02S
6HR MIN TEMP:  67; 6HR MAX TEMP:  72;

TERRELL        SUNNY     71  45  39 NE7       30.03S
6HR MIN TEMP:  68; 6HR MAX TEMP:  73;

WAXAHACHIE     SUNNY     71  46  41 NW6       30.04R
6HR MIN TEMP:  67; 6HR MAX TEMP:  72;

CLEBURNE       SUNNY     70  50  49 CALM      30.05R
GRANBURY       MOSUNNY   73  47  39 CALM      30.05R
6HR MIN TEMP:  69; 6HR MAX TEMP:  75;

$$

TXZ083>090-098>101-113>116-127>130-139>142-154-155-040100-
WESTERN NORTH TEXAS

CITY           SKY/WX    TMP DP  RH WIND       PRES   REMARKS
WICHITA FALLS  CLOUDY    61  57  87 S7        30.03F
6HR MIN TEMP:  59; 6HR MAX TEMP:  74; 6HR PCP:  0.07;

WF-KICKAPOO    CLOUDY    62  57  83 E10       30.04F
6HR MIN TEMP:  60; 6HR MAX TEMP:  76; 6HR PCP:  0.01;

ABILENE        NOT AVBL
ABILENE-DYESS  LGT RAIN  61  57  88 N15       30.08R
MINERAL WELLS  SUNNY     73  49  42 NE6       30.03R
6HR MIN TEMP:  68; 6HR MAX TEMP:  75;

STEPHENVILLE   SUNNY     72  46  39 NE7       30.07R
6HR MIN TEMP:  68; 6HR MAX TEMP:  74;

COMANCHE       SUNNY     72  52  49 CALM      30.04S
6HR MIN TEMP:  68; 6HR MAX TEMP:  73;

BROWNWOOD      MOSUNNY   73  48  40 E7        30.04R
COLEMAN        SUNNY     74  47  38 CALM      30.04R
6HR MIN TEMP:  69; 6HR MAX TEMP:  76;

$$

TXZ143>147-156>162-174-175-040100-
CENTRAL TEXAS

CITY           SKY/WX    TMP DP  RH WIND       PRES   REMARKS
WACO           SUNNY     72  46  39 N9        30.02S
6HR MIN TEMP:  70; 6HR MAX TEMP:  75; 6HR PCP: TRACE;

WACO-TSTC      SUNNY     72  46  40 NE5       30.02S
WACO-MCGREGOR  SUNNY     72  48  42 N8        30.03S
6HR MIN TEMP:  69; 6HR MAX TEMP:  73;

HILLSBORO      SUNNY     69  47  44 N6        30.03S
6HR MIN TEMP:  67; 6HR MAX TEMP:  72;

CORSICANA      SUNNY     72  46  39 N8        30.04R
6HR MIN TEMP:  69; 6HR MAX TEMP:  74;

MEXIA          SUNNY     69  44  40 N5        30.02S
6HR MIN TEMP:  67; 6HR MAX TEMP:  71;

HEARNE         SUNNY     71  47  41 N9        30.02S
6HR MIN TEMP:  69; 6HR MAX TEMP:  74;

TEMPLE         SUNNY     70  51  51 NE9       30.03S
6HR MIN TEMP:  69; 6HR MAX TEMP:  73;

KILLEEN        NOT AVBL
KILLEEN-SKYLRK SUNNY     72  50  45 NE10      30.03R
6HR MIN TEMP:  68; 6HR MAX TEMP:  74;

HAMILTON       SUNNY     72  47  42 N6        30.04S
6HR MIN TEMP:  68; 6HR MAX TEMP:  74;

LAMPASAS       SUNNY     72  51  48 E5        30.02S
6HR MIN TEMP:  68; 6HR MAX TEMP:  73;

$$

TXZ095>097-106>112-122>126-135>138-148>153-164>167-040100-
EAST TEXAS

CITY           SKY/WX    TMP DP  RH WIND       PRES   REMARKS
PARIS          SUNNY     70  45  40 N7        30.02S
6HR MIN TEMP:  66; 6HR MAX TEMP:  72;

MOUNT PLEASANT MOSUNNY   70  46  41 NW7       30.03S
6HR MIN TEMP:  67; 6HR MAX TEMP:  71;

GILMER         SUNNY     68  47  47 NW6       30.01S
6HR MIN TEMP:  65; 6HR MAX TEMP:  69;

MINEOLA        SUNNY     70  46  43 N6        30.03S
TYLER          SUNNY     71  46  40 N9        30.01S
6HR MIN TEMP:  69; 6HR MAX TEMP:  73;

LONGVIEW       SUNNY     69  47  45 N5        29.99F
6HR MIN TEMP:  67; 6HR MAX TEMP:  72;

PALESTINE      SUNNY     71  46  40 N10       30.02S
JACKSONVILLE   SUNNY     69  48  46 CALM      30.03R
NACOGDOCHES    SUNNY     70  48  46 N6        29.99S
6HR MIN TEMP:  70; 6HR MAX TEMP:  73;

LUFKIN         SUNNY     71  49  45 N5        29.99S
6HR MIN TEMP:  69; 6HR MAX TEMP:  74;

$$

SUPPLEMENTAL OBSERVATIONS (CENTRAL)

CITY           SKY/WX    TMP DP  RH WIND       PRES   REMARKS
$$

SUPPLEMENTAL OBSERVATIONS (WEST)

CITY           SKY/WX    TMP DP  RH WIND       PRES   REMARKS
$$

SUPPLEMENTAL OBSERVATIONS (EAST)

CITY           SKY/WX    TMP DP  RH WIND       PRES   REMARKS
$$

SUPPLEMENTAL OBSERVATIONS ARE A COLLECTION OF AUTOMATED INSTRUMENTS
THAT ARE MAINTAINED BY A VARIETY OF FEDERAL AND STATE AGENCIES.
CERTAIN ELEMENTS...SUCH AS HUMIDITY VALUES AND SUSTAINED WIND
SPEEDS...MAY BE APPROXIMATED.




USA.gov is the U.S. government's official web portal to all federal, state and local government web resources and services.